Regional Weather Roundup
Issued by NWS

Home | Current Version | Previous Version | Graphics & Text | Print | Product List | Glossary On
Versions: 1 2 3 4 5 6 7 8 9 10 11 12 13 14 15 16 17 18 19 20 21 22 23 24 25 26 27 28 29 30 31 32 33 34 35 36 37 38 39 40 41 42 43 44 45 46 47 48 49 50
000
ASUS44 KMEG 230400
RWRTN
TENNESSEE HOURLY STATE WEATHER ROUNDUP
NATIONAL WEATHER SERVICE MEMPHIS TN
1100 PM CDT MON MAY 22 2017

TNZ002-004-019-021-049-052-054-088>092-230500-
WEST TENNESSEE

CITY           SKY/WX    TMP DP  RH WIND       PRES   REMARKS
MEMPHIS INTL   CLOUDY    68  58  70 NE6       29.93F
NWS MEMPHIS      N/A     65 N/A N/A MISG        N/A
JACKSON        CLOUDY    66  59  78 E3        29.94F
DYERSBURG      CLOUDY    66  57  72 E5        29.94F
$$

TNZ008-025-027-028-033-062-065-066-230500-
NORTH MIDDLE TENNESSEE

CITY           SKY/WX    TMP DP  RH WIND       PRES   REMARKS
NASHVILLE      CLOUDY    66  55  67 N6        29.96F
CLARKSVILLE    CLOUDY    64  53  67 NE5       29.96F
SMYRNA           N/A    N/A N/A N/A MISG        N/A
CROSSVILLE     CLOUDY    60  55  83 N5        29.99F
$$

TNZ061-075-076-078-094-096-097-230500-
SOUTH MIDDLE TENNESSEE

CITY           SKY/WX    TMP DP  RH WIND       PRES   REMARKS
TULLAHOMA      MOCLDY    64  59  82 CALM      29.97R
WINCHESTER     CLOUDY    64  64 100 S3        29.96S
$$

TNZ017-018-042-046-047-230500-
NORTHEAST TENNESSEE

CITY           SKY/WX    TMP DP  RH WIND       PRES   REMARKS
TRI CITIES     CLOUDY    63  59  87 CALM      29.97F
$$

TNZ012-013-036-069-073-074-230500-
CENTRAL EAST TENNESSEE

CITY           SKY/WX    TMP DP  RH WIND       PRES   REMARKS
KNOXVILLE      CLOUDY    68  60  75 N3        29.94S
OAK RIDGE      CLOUDY    65  56  72 CALM      29.96F
GATLINBURG     MOCLDY    64  63  94 CALM      29.94F
$$

TNZ083-085-099-230500-
SOUTHEAST TENNESSEE

CITY           SKY/WX    TMP DP  RH WIND       PRES   REMARKS
CHATTANOOGA    LGT RAIN  69  66  90 SE5       29.95F FOG
$$

SKY/WX REPORTED AS FAIR MEANS FEW OR NO CLOUDS BELOW
12 THOUSAND FEET.




USA.gov is the U.S. government's official web portal to all federal, state and local government web resources and services.